Stations météo

Publicité
Sete, France (7641): Température de l'air & dewpoint: 16.07.2018 10:00:00 - 22.07.2018 10:00:00 (CEST)Sete, France (7641): Vitesse du vent & gusts: 16.07.2018 10:00:00 - 22.07.2018 10:00:00 (CEST)Sete, France (7641): Direction du vent: 16.07.2018 10:00:00 - 22.07.2018 10:00:00 (CEST)Sete, France (7641): reduced air pressure: 16.07.2018 10:00:00 - 22.07.2018 10:00:00 (CEST)Sete, France (7641): visibility: 16.07.2018 10:00:00 - 22.07.2018 10:00:00 (CEST)Sete, France (7641): Quantités de précipitations: 16.07.2018 10:00:00 - 22.07.2018 10:00:00 (CEST)
Date & Time tt [°C] td [°C] ff [km/h] ff [knt] fx [km/h] fx [knt] dd ppp [hPa] vv [km] rr [mm]
22.07.2018 10:00:00 22,5 12,4 19 10 36 19 WNW 1013,9 - 0,0
22.07.2018 09:00:00 20,8 13,0 19 10 34 18 W 1014,2 - 0,0
22.07.2018 08:00:00 20,4 12,6 21 12 40 21 WNW 1013,7 - 0,0
22.07.2018 07:00:00 20,4 11,6 27 14 42 23 NW 1013,2 - 0,0
22.07.2018 06:00:00 20,5 11,4 29 16 42 23 NW 1013,2 - 0,0
22.07.2018 05:00:00 21,0 11,6 26 14 40 22 NNW 1013,0 - 0,0
22.07.2018 04:00:00 21,5 10,6 20 11 33 18 NW 1013,5 - 0,0
22.07.2018 03:00:00 21,2 11,5 11 6 27 15 NW 1014,2 - 0,0
22.07.2018 02:00:00 21,4 11,7 17 9 31 17 WNW 1014,5 - 0,0
22.07.2018 01:00:00 22,1 11,2 13 7 33 18 NW 1014,2 - 0,0
22.07.2018 00:00:00 22,6 11,0 15 8 41 22 NW 1014,0 - 0,0
21.07.2018 23:00:00 22,9 11,6 19 10 42 23 NW 1013,7 - 0,0
21.07.2018 22:00:00 23,3 12,6 16 9 35 19 WNW 1013,2 - 0,0
21.07.2018 21:00:00 24,3 11,9 16 9 38 20 WNW 1012,7 - 0,0
21.07.2018 20:00:00 25,5 11,6 9 5 37 20 NNW 1012,1 - 0,0
21.07.2018 19:00:00 27,0 11,1 14 8 37 20 WNW 1012,2 - 0,0
21.07.2018 18:00:00 27,5 9,8 17 9 35 19 NNW 1012,2 - 0,0
21.07.2018 17:00:00 28,4 11,0 13 7 41 22 NW 1012,1 20 0,0
21.07.2018 16:00:00 - - - - - - - - - -
21.07.2018 15:00:00 - - - - - - - - - -
21.07.2018 14:00:00 - - - - - - - - - -
21.07.2018 13:00:00 - - - - - - - - - -
21.07.2018 12:00:00 - - - - - - - - - -
21.07.2018 11:00:00 - - - - - - - - - -
21.07.2018 10:00:00 - - - - - - - - - -
21.07.2018 09:00:00 - - - - - - - - - -
21.07.2018 08:00:00 - - - - - - - - - -
21.07.2018 07:00:00 - - - - - - - - - -
21.07.2018 06:00:00 - - - - - - - - - -
21.07.2018 05:00:00 - - - - - - - - - -
21.07.2018 04:00:00 - - - - - - - - - -
21.07.2018 03:00:00 20,5 17,9 18 10 38 20 WNW 1013,3 - 0,0
21.07.2018 02:00:00 21,7 19,1 12 7 18 10 NW 1013,9 - 0,0
21.07.2018 01:00:00 21,8 19,2 10 5 31 17 N 1012,9 - 4,3
21.07.2018 00:00:00 24,4 18,3 13 7 - - N 1012,6 - -
20.07.2018 23:00:00 - - - - - - - - - -
20.07.2018 22:00:00 - - - - - - - - - -
20.07.2018 21:00:00 - - - - - - - - - -
20.07.2018 20:00:00 - - - - - - - - - -
20.07.2018 19:00:00 23,9 21,0 16 9 28 15 SSW 1011,2 - 0,0
20.07.2018 18:00:00 24,9 20,8 17 9 28 15 SSW 1011,4 - 0,0
20.07.2018 17:00:00 26,8 20,6 9 5 16 9 S 1011,2 8 0,0
20.07.2018 16:00:00 26,4 21,2 8 4 24 13 S 1012,2 - 0,0
20.07.2018 15:00:00 27,3 20,9 11 6 20 11 S 1012,4 - 0,0
20.07.2018 14:00:00 27,9 20,2 8 4 14 8 S 1012,8 10 0,0
20.07.2018 13:00:00 26,4 19,3 6 3 12 6 ESE 1013,5 - 0,0
20.07.2018 12:00:00 - - - - - - - - - -
20.07.2018 11:00:00 - - - - - - - - - -
20.07.2018 10:00:00 25,3 17,7 5 3 16 9 SSE 1013,8 - 0,0
20.07.2018 09:00:00 25,2 15,5 9 5 - - NNE 1013,4 - -
20.07.2018 08:00:00 - - - - - - - - - -
20.07.2018 07:00:00 - - - - - - - - - -
20.07.2018 06:00:00 - - - - - - - - - -
20.07.2018 05:00:00 - - - - - - - - - -
20.07.2018 04:00:00 - - - - - - - - - -
20.07.2018 03:00:00 - - - - - - - - - -
20.07.2018 02:00:00 - - - - - - - - - -
20.07.2018 01:00:00 - - - - - - - - - -
20.07.2018 00:00:00 - - - - - - - - - -
19.07.2018 23:00:00 - - - - - - - - - -
19.07.2018 22:00:00 - - - - - - - - - -
19.07.2018 21:00:00 - - - - - - - - - -
19.07.2018 20:00:00 - - - - - - - - - -
19.07.2018 19:00:00 - - - - - - - - - -
19.07.2018 18:00:00 - - - - - - - - - -
19.07.2018 17:00:00 27,1 14,8 19 10 36 20 SW 1012,9 20 0,0
19.07.2018 16:00:00 - - - - - - - - - -
19.07.2018 15:00:00 - - - - - - - - - -
19.07.2018 14:00:00 30,5 15,0 14 7 31 17 SW 1013,9 15 0,0
19.07.2018 13:00:00 31,1 14,7 16 9 26 14 SSW 1014,1 - 0,0
19.07.2018 12:00:00 29,7 16,8 13 7 26 14 W 1014,5 - 0,0
19.07.2018 11:00:00 27,6 17,2 13 7 23 13 W 1014,8 15 0,0
19.07.2018 10:00:00 26,8 15,2 13 7 24 13 W 1014,6 - 0,0
19.07.2018 09:00:00 26,9 11,8 16 9 29 16 NW 1014,4 - 0,0
19.07.2018 08:00:00 - - - - - - - - - -
19.07.2018 07:00:00 - - - - - - - - - -
19.07.2018 06:00:00 - - - - - - - - - -
19.07.2018 05:00:00 - - - - - - - - - -
19.07.2018 04:00:00 - - - - - - - - - -
19.07.2018 03:00:00 - - - - - - - - - -
19.07.2018 02:00:00 - - - - - - - - - -
19.07.2018 01:00:00 24,3 14,7 19 10 41 22 NW 1014,1 - 0,0
19.07.2018 00:00:00 23,2 15,0 34 18 50 27 NNW 1013,9 - 0,2
18.07.2018 23:00:00 20,9 19,2 31 17 45 25 N 1014,7 14 3,0
18.07.2018 22:00:00 - - - - - - - - - -
18.07.2018 21:00:00 - - - - - - - - - -
18.07.2018 20:00:00 - - - - - - - - - -
18.07.2018 19:00:00 24,4 17,6 19 11 30 16 SSW 1013,0 - 0,0
18.07.2018 18:00:00 25,7 17,4 16 9 30 16 SSW 1013,0 - 0,0
18.07.2018 17:00:00 25,5 16,6 18 10 36 19 SSW 1013,5 - 0,0
18.07.2018 16:00:00 25,9 17,3 21 11 34 18 SSW 1014,2 - 0,0
18.07.2018 15:00:00 27,3 14,3 18 10 29 16 SSW 1014,4 - 0,0
18.07.2018 14:00:00 27,6 13,5 10 6 20 11 SSW 1014,6 - 0,0
18.07.2018 13:00:00 27,6 13,2 9 5 18 10 SSW 1015,1 - 0,0
18.07.2018 12:00:00 28,5 13,6 8 4 15 8 S 1015,7 - 0,0
18.07.2018 11:00:00 28,8 12,2 5 3 17 9 SSE 1015,9 - 0,0
18.07.2018 10:00:00 28,4 12,3 9 5 - - N 1015,9 - -
18.07.2018 09:00:00 27,1 11,6 12 6 20 11 N 1015,7 - 0,0
18.07.2018 08:00:00 26,3 12,4 8 5 17 9 NNE 1015,6 - 0,0
18.07.2018 07:00:00 24,8 12,4 8 4 - - N 1015,6 - -
18.07.2018 06:00:00 - - - - - - - - - -
18.07.2018 05:00:00 24,4 13,3 14 8 26 14 N 1015,2 - 0,0
18.07.2018 04:00:00 24,8 13,4 13 7 32 17 NNW 1015,4 - 0,0
18.07.2018 03:00:00 24,6 13,5 24 13 31 17 NW 1015,7 - 0,0
18.07.2018 02:00:00 24,5 14,0 21 12 31 17 NW 1015,9 - 0,0
18.07.2018 01:00:00 24,7 14,2 20 11 31 17 WNW 1015,8 - 0,0
18.07.2018 00:00:00 25,1 14,2 21 11 32 17 NW 1015,7 - 0,0
17.07.2018 23:00:00 25,6 15,6 16 9 33 18 W 1015,3 - -
17.07.2018 22:00:00 26,8 14,9 13 7 34 18 NW 1014,9 - 0,0
17.07.2018 21:00:00 28,1 14,3 13 7 27 14 WNW 1014,4 - 0,0
17.07.2018 20:00:00 29,6 13,4 13 7 31 17 WNW 1014,1 - 0,0
17.07.2018 19:00:00 31,5 12,8 12 7 42 23 NW 1014,0 - 0,0
17.07.2018 18:00:00 32,6 12,8 13 7 32 18 WNW 1014,3 - 0,0
17.07.2018 17:00:00 32,0 12,3 15 8 39 21 NW 1014,6 20 0,0
17.07.2018 16:00:00 31,7 13,0 13 7 42 23 NW 1015,2 - 0,0
17.07.2018 15:00:00 31,1 13,4 17 9 39 21 NNW 1015,5 - 0,0
17.07.2018 14:00:00 29,4 14,0 18 10 41 22 WNW 1016,0 - -
17.07.2018 13:00:00 29,1 13,7 15 8 38 20 NW 1016,4 - 0,0
17.07.2018 12:00:00 27,1 14,1 16 9 48 26 WNW 1016,6 - 0,0
17.07.2018 11:00:00 25,3 14,4 27 14 49 26 NW 1016,8 - 0,0
17.07.2018 10:00:00 24,3 14,7 26 14 55 30 NW 1017,0 - 0,0
17.07.2018 09:00:00 23,5 14,8 24 13 49 27 NW 1016,8 - 0,0
17.07.2018 08:00:00 22,7 14,5 21 11 41 22 NW 1016,7 20 -
17.07.2018 07:00:00 22,1 15,4 15 8 33 18 WNW 1016,5 - 0,0
17.07.2018 06:00:00 22,1 15,9 13 7 37 20 WNW 1015,9 - 0,0
17.07.2018 05:00:00 22,2 15,8 12 7 35 19 WNW 1015,8 - 0,0
17.07.2018 04:00:00 22,9 16,2 13 7 42 23 WNW 1015,6 - 0,0
17.07.2018 03:00:00 23,3 16,3 16 9 41 22 W 1015,7 - 0,0
17.07.2018 02:00:00 23,3 15,9 6 3 37 20 NNW 1016,2 - 0,0
17.07.2018 01:00:00 23,6 15,6 20 11 37 20 WNW 1015,3 - 0,0
17.07.2018 00:00:00 23,3 15,6 13 7 39 21 NW 1015,6 - 0,0
16.07.2018 23:00:00 23,5 16,0 13 7 39 21 WNW 1014,7 - 0,0
16.07.2018 22:00:00 23,9 16,2 18 10 37 20 WNW 1013,6 - 0,0
16.07.2018 21:00:00 24,5 16,0 15 8 44 24 WNW 1012,9 - 0,0
16.07.2018 20:00:00 25,3 15,9 17 9 48 26 NW 1012,4 25 0,0
16.07.2018 19:00:00 26,0 15,1 21 11 50 27 NW 1011,7 - 0,0
16.07.2018 18:00:00 24,8 15,1 25 13 54 29 NW 1011,5 - 0,0
16.07.2018 17:00:00 24,3 15,0 23 12 55 30 NW 1010,9 25 0,0
16.07.2018 16:00:00 23,5 15,5 21 11 49 27 NW 1010,5 - 0,0
16.07.2018 15:00:00 22,4 15,5 13 7 48 26 NW 1011,0 - 0,0
16.07.2018 14:00:00 - - - - - - - - - -
16.07.2018 13:00:00 - - - - - - - - - -
16.07.2018 12:00:00 - - - - - - - - - -
16.07.2018 11:00:00 - - - - - - - - - -
16.07.2018 10:00:00 - - - - - - - - - -

tt = Température de l'air
td = dewpoint
ff = Vitesse du vent
fx = gusts
dd = Direction du vent
ppp = reduced air pressure
vv = visibility
rr = Quantités de précipitations

stations d'obs. à proximité